NUUKSIO Weather Reports


time (UTC)temp
C
wind
direction
speed
KPH
gust
KPH
rain 1hr
cm
rain 24hr
cm
rain mn
cm
humidity
%
barometer
mb
20260506102721 11 276 12.9 24.1 0.00 0.00 0.00 26 1013.3
20260506100721 10 274 9.7 20.9 0.00 0.00 0.00 29 1013.4
20260506094721 11 232 12.9 22.5 0.00 0.00 0.00 32 1013.2
20260506092721 10 267 12.9 27.4 0.00 0.00 0.00 29 1013.1
20260506090721 10 257 12.9 24.1 0.00 0.00 0.00 38 1013.1
20260506084721 10 275 14.5 24.1 0.00 0.00 0.00 32 1013.0
20260506082721 9 267 14.5 24.1 0.00 0.00 0.00 37 1013.0
20260506080721 8 276 12.9 27.4 0.00 0.00 0.00 37 1012.9
20260506072721 8 276 11.3 25.7 0.00 0.00 0.00 45 1012.7
20260506070721 7 283 9.7 20.9 0.00 0.00 0.00 50 1012.6
20260506060721 6 268 9.7 17.7 0.00 0.00 0.00 62 1012.2
20260506050720 3 265 8.0 16.1 0.00 0.00 0.00 78 1011.8
20260506044720 2 261 6.4 12.9 0.00 0.00 0.00 84 1011.6
20260506042720 1 263 8.0 16.1 0.00 0.00 0.00 90 1011.5
20260506040720 0 263 6.4 14.5 0.00 0.00 0.00 94 1011.4
20260506034720 0 248 4.8 12.9 0.00 0.00 0.00 97 1011.2
20260506032720 -1 263 6.4 12.9 0.00 0.00 0.00 98 1011.0
20260506030720 -1 269 8.0 14.5 0.00 0.00 0.00 97 1010.9
20260506024720 -1 255 4.8 11.3 0.00 0.00 0.00 97 1010.7
20260506022720 -1 264 6.4 12.9 0.00 0.00 0.00 97 1010.5
20260506020720 -1 271 6.4 11.3 0.00 0.00 0.00 96 1010.3
20260506014720 -1 254 6.4 9.7 0.00 0.00 0.00 96 1010.2
20260506012720 -1 256 4.8 9.7 0.00 0.00 0.00 96 1010.1
20260506010720 -1 265 6.4 11.3 0.00 0.00 0.00 95 1010.0
20260506004719 -1 261 4.8 9.7 0.00 0.00 0.00 94 1009.8
20260506002719 -1 266 6.4 11.3 0.00 0.00 0.00 92 1009.6
20260506000719 -1 268 6.4 12.9 0.00 0.00 0.00 92 1009.6
20260505234720 0 265 6.4 12.9 0.00 0.00 0.00 90 1009.4
20260505232720 0 261 6.4 9.7 0.00 0.00 0.00 88 1009.3
20260505230719 0 268 6.4 12.9 0.00 0.00 0.00 86 1009.1
20260505224719 0 268 8.0 17.7 0.00 0.00 0.00 85 1009.0
20260505222719 0 272 6.4 12.9 0.00 0.00 0.00 82 1008.9
20260505220719 1 265 6.4 14.5 0.00 0.00 0.00 82 1008.8
20260505214719 1 262 9.7 19.3 0.00 0.03 0.00 82 1008.7
20260505212719 1 250 8.0 16.1 0.00 0.03 0.00 80 1008.5
20260505210719 1 254 6.4 14.5 0.00 0.03 0.00 78 1008.3
20260505204719 1 257 6.4 12.9 0.00 0.03 0.03 75 1008.0
20260505202719 2 256 6.4 14.5 0.00 0.03 0.03 73 1007.8
20260505200719 2 252 8.0 16.1 0.00 0.03 0.03 71 1007.6
20260505194718 2 248 8.0 16.1 0.00 0.03 0.03 69 1007.5
20260505192719 3 255 8.0 16.1 0.00 0.03 0.03 67 1007.4
20260505190718 3 248 9.7 17.7 0.00 0.03 0.03 65 1007.1
20260505184718 3 240 9.7 17.7 0.00 0.03 0.03 63 1006.9
20260505182718 5 242 9.7 20.9 0.00 0.03 0.03 60 1006.7
20260505180718 5 243 11.3 19.3 0.00 0.03 0.03 57 1006.4
20260505174718 6 239 9.7 19.3 0.00 0.03 0.03 54 1006.2
20260505172717 6 243 14.5 27.4 0.00 0.03 0.03 49 1006.0
20260505170718 7 233 14.5 27.4 0.00 0.03 0.03 52 1005.9
20260505164718 8 242 17.7 32.2 0.00 0.03 0.03 46 1005.8
20260505162718 8 229 14.5 32.2 0.00 0.03 0.03 47 1005.7
20260505160718 8 243 14.5 29.0 0.00 0.03 0.03 48 1005.6
20260505152718 10 239 17.7 33.8 0.00 0.03 0.03 41 1005.2
20260505150718 10 240 14.5 29.0 0.00 0.03 0.03 41 1005.1
20260505124717 11 238 9.7 17.7 0.00 0.03 0.03 42 1004.4
20260505122717 11 284 16.1 30.6 0.00 0.03 0.03 40 1004.4
20260505120717 12 247 14.5 30.6 0.00 0.03 0.03 45 1004.2
20260505114717 9 270 19.3 35.4 0.00 0.10 0.03 51 1004.2
20260505112717 12 277 17.7 32.2 0.00 0.10 0.03 44 1003.8
20260505110716 10 271 19.3 37.0 0.00 0.10 0.03 51 1003.7